﻿測定場所 (Monitoring sites),日付 (Measurement date),時間 (Measurement time),線量率 最大値 (max) μGy/h,線量率 最小値 (min) μGy/h,線量率 平均値 (average) μGy/h,
調布 (Chofu),2023-09-10,23:01～24:00,0.0287,0.0241,0.0272,
調布 (Chofu),2023-09-10,22:01～23:00,0.0287,0.0253,0.0271,
調布 (Chofu),2023-09-10,21:01～22:00,0.0290,0.0253,0.0271,
調布 (Chofu),2023-09-10,20:01～21:00,0.0287,0.0252,0.0270,
調布 (Chofu),2023-09-10,19:01～20:00,0.0284,0.0252,0.0269,
調布 (Chofu),2023-09-10,18:01～19:00,0.0293,0.0252,0.0271,
調布 (Chofu),2023-09-10,17:01～18:00,0.0296,0.0252,0.0272,
調布 (Chofu),2023-09-10,16:01～17:00,0.0296,0.0253,0.0273,
調布 (Chofu),2023-09-10,15:01～16:00,0.0288,0.0256,0.0274,
調布 (Chofu),2023-09-10,14:01～15:00,0.0290,0.0256,0.0272,
調布 (Chofu),2023-09-10,13:01～14:00,0.0296,0.0249,0.0272,
調布 (Chofu),2023-09-10,12:01～13:00,0.0292,0.0253,0.0273,
調布 (Chofu),2023-09-10,11:01～12:00,0.0294,0.0257,0.0274,
調布 (Chofu),2023-09-10,10:01～11:00,0.0294,0.0246,0.0274,
調布 (Chofu),2023-09-10,09:01～10:00,0.0301,0.0259,0.0278,
調布 (Chofu),2023-09-10,08:01～09:00,0.0310,0.0263,0.0287,
調布 (Chofu),2023-09-10,07:01～08:00,0.0322,0.0270,0.0291,
調布 (Chofu),2023-09-10,06:01～07:00,0.0306,0.0273,0.0289,
調布 (Chofu),2023-09-10,05:01～06:00,0.0303,0.0260,0.0282,
調布 (Chofu),2023-09-10,04:01～05:00,0.0307,0.0252,0.0281,
調布 (Chofu),2023-09-10,03:01～04:00,0.0299,0.0258,0.0279,
調布 (Chofu),2023-09-10,02:01～03:00,0.0291,0.0257,0.0276,
調布 (Chofu),2023-09-10,01:01～02:00,0.0301,0.0250,0.0279,
調布 (Chofu),2023-09-10,00:01～01:00,0.0302,0.0258,0.0278,
調布 (Chofu),2023-09-09,23:01～24:00,0.0296,0.0255,0.0274,
調布 (Chofu),2023-09-09,22:01～23:00,0.0308,0.0261,0.0276,
調布 (Chofu),2023-09-09,21:01～22:00,0.0305,0.0257,0.0278,
調布 (Chofu),2023-09-09,20:01～21:00,0.0300,0.0256,0.0278,
調布 (Chofu),2023-09-09,19:01～20:00,0.0307,0.0248,0.0277,
調布 (Chofu),2023-09-09,18:01～19:00,0.0304,0.0260,0.0278,
調布 (Chofu),2023-09-09,17:01～18:00,0.0297,0.0251,0.0274,
調布 (Chofu),2023-09-09,16:01～17:00,0.0299,0.0254,0.0276,
調布 (Chofu),2023-09-09,15:01～16:00,0.0292,0.0253,0.0277,
調布 (Chofu),2023-09-09,14:01～15:00,0.0301,0.0263,0.0277,
調布 (Chofu),2023-09-09,13:01～14:00,0.0303,0.0258,0.0281,
調布 (Chofu),2023-09-09,12:01～13:00,0.0326,0.0269,0.0296,
調布 (Chofu),2023-09-09,11:01～12:00,0.0374,0.0310,0.0339,
調布 (Chofu),2023-09-09,10:01～11:00,0.0407,0.0297,0.0355,
調布 (Chofu),2023-09-09,09:01～10:00,0.0329,0.0280,0.0308,
調布 (Chofu),2023-09-09,08:01～09:00,0.0330,0.0273,0.0298,
調布 (Chofu),2023-09-09,07:01～08:00,0.0294,0.0249,0.0277,
調布 (Chofu),2023-09-09,06:01～07:00,0.0297,0.0262,0.0279,
調布 (Chofu),2023-09-09,05:01～06:00,0.0298,0.0256,0.0278,
調布 (Chofu),2023-09-09,04:01～05:00,0.0322,0.0265,0.0287,
調布 (Chofu),2023-09-09,03:01～04:00,0.0316,0.0270,0.0294,
調布 (Chofu),2023-09-09,02:01～03:00,0.0317,0.0276,0.0295,
調布 (Chofu),2023-09-09,01:01～02:00,0.0322,0.0275,0.0301,
調布 (Chofu),2023-09-09,00:01～01:00,0.0334,0.0279,0.0304,
調布 (Chofu),2023-09-08,23:01～24:00,0.0322,0.0280,0.0299,
調布 (Chofu),2023-09-08,22:01～23:00,0.0305,0.0263,0.0286,
調布 (Chofu),2023-09-08,21:01～22:00,0.0302,0.0267,0.0282,
調布 (Chofu),2023-09-08,20:01～21:00,0.0302,0.0262,0.0280,
調布 (Chofu),2023-09-08,19:01～20:00,0.0314,0.0264,0.0291,
調布 (Chofu),2023-09-08,18:01～19:00,0.0329,0.0280,0.0303,
調布 (Chofu),2023-09-08,17:01～18:00,0.0318,0.0272,0.0295,
調布 (Chofu),2023-09-08,16:01～17:00,0.0327,0.0280,0.0307,
調布 (Chofu),2023-09-08,15:01～16:00,0.0353,0.0301,0.0324,
調布 (Chofu),2023-09-08,14:01～15:00,0.0358,0.0312,0.0336,
調布 (Chofu),2023-09-08,13:01～14:00,0.0349,0.0294,0.0317,
調布 (Chofu),2023-09-08,12:01～13:00,0.0371,0.0295,0.0333,
調布 (Chofu),2023-09-08,11:01～12:00,0.0440,0.0332,0.0379,
調布 (Chofu),2023-09-08,10:01～11:00,0.0565,0.0436,0.0505,
調布 (Chofu),2023-09-08,09:01～10:00,0.0549,0.0436,0.0492,
調布 (Chofu),2023-09-08,08:01～09:00,0.0471,0.0395,0.0425,
調布 (Chofu),2023-09-08,07:01～08:00,0.0471,0.0395,0.0438,
調布 (Chofu),2023-09-08,06:01～07:00,0.0496,0.0400,0.0456,
調布 (Chofu),2023-09-08,05:01～06:00,0.0392,0.0302,0.0332,
調布 (Chofu),2023-09-08,04:01～05:00,0.0342,0.0286,0.0315,
調布 (Chofu),2023-09-08,03:01～04:00,0.0322,0.0272,0.0297,
調布 (Chofu),2023-09-08,02:01～03:00,0.0327,0.0274,0.0299,
調布 (Chofu),2023-09-08,01:01～02:00,0.0325,0.0273,0.0299,
調布 (Chofu),2023-09-08,00:01～01:00,0.0317,0.0273,0.0296,
調布 (Chofu),2023-09-07,23:01～24:00,0.0332,0.0283,0.0311,
調布 (Chofu),2023-09-07,22:01～23:00,0.0330,0.0276,0.0303,
調布 (Chofu),2023-09-07,21:01～22:00,0.0304,0.0262,0.0281,
調布 (Chofu),2023-09-07,20:01～21:00,0.0301,0.0262,0.0283,
調布 (Chofu),2023-09-07,19:01～20:00,0.0301,0.0256,0.0281,
調布 (Chofu),2023-09-07,18:01～19:00,0.0301,0.0265,0.0283,
調布 (Chofu),2023-09-07,17:01～18:00,0.0308,0.0266,0.0283,
調布 (Chofu),2023-09-07,16:01～17:00,0.0297,0.0256,0.0281,
調布 (Chofu),2023-09-07,15:01～16:00,0.0303,0.0256,0.0280,
調布 (Chofu),2023-09-07,14:01～15:00,0.0301,0.0261,0.0280,
調布 (Chofu),2023-09-07,13:01～14:00,0.0302,0.0262,0.0282,
調布 (Chofu),2023-09-07,12:01～13:00,0.0298,0.0256,0.0281,
調布 (Chofu),2023-09-07,11:01～12:00,0.0298,0.0251,0.0281,
調布 (Chofu),2023-09-07,10:01～11:00,0.0309,0.0262,0.0284,
調布 (Chofu),2023-09-07,09:01～10:00,0.0304,0.0262,0.0286,
調布 (Chofu),2023-09-07,08:01～09:00,0.0304,0.0262,0.0285,
調布 (Chofu),2023-09-07,07:01～08:00,0.0303,0.0264,0.0285,
調布 (Chofu),2023-09-07,06:01～07:00,0.0311,0.0259,0.0284,
調布 (Chofu),2023-09-07,05:01～06:00,0.0304,0.0267,0.0286,
調布 (Chofu),2023-09-07,04:01～05:00,0.0305,0.0269,0.0286,
調布 (Chofu),2023-09-07,03:01～04:00,0.0305,0.0263,0.0285,
調布 (Chofu),2023-09-07,02:01～03:00,0.0308,0.0255,0.0287,
調布 (Chofu),2023-09-07,01:01～02:00,0.0303,0.0263,0.0285,
調布 (Chofu),2023-09-07,00:01～01:00,0.0310,0.0256,0.0282,
調布 (Chofu),2023-09-06,23:01～24:00,0.0300,0.0260,0.0283,
調布 (Chofu),2023-09-06,22:01～23:00,0.0295,0.0264,0.0278,
調布 (Chofu),2023-09-06,21:01～22:00,0.0299,0.0257,0.0279,
調布 (Chofu),2023-09-06,20:01～21:00,0.0299,0.0262,0.0281,
調布 (Chofu),2023-09-06,19:01～20:00,0.0307,0.0270,0.0291,
調布 (Chofu),2023-09-06,18:01～19:00,0.0359,0.0295,0.0320,
調布 (Chofu),2023-09-06,17:01～18:00,0.0353,0.0262,0.0301,
調布 (Chofu),2023-09-06,16:01～17:00,0.0297,0.0256,0.0276,
調布 (Chofu),2023-09-06,15:01～16:00,0.0306,0.0259,0.0277,
調布 (Chofu),2023-09-06,14:01～15:00,0.0299,0.0251,0.0279,
調布 (Chofu),2023-09-06,13:01～14:00,0.0295,0.0256,0.0277,
調布 (Chofu),2023-09-06,12:01～13:00,0.0302,0.0256,0.0281,
調布 (Chofu),2023-09-06,11:01～12:00,0.0298,0.0259,0.0276,
調布 (Chofu),2023-09-06,10:01～11:00,0.0305,0.0259,0.0281,
調布 (Chofu),2023-09-06,09:01～10:00,0.0303,0.0260,0.0283,
調布 (Chofu),2023-09-06,08:01～09:00,0.0310,0.0266,0.0286,
調布 (Chofu),2023-09-06,07:01～08:00,0.0310,0.0270,0.0286,
調布 (Chofu),2023-09-06,06:01～07:00,0.0310,0.0266,0.0286,
調布 (Chofu),2023-09-06,05:01～06:00,0.0304,0.0266,0.0288,
調布 (Chofu),2023-09-06,04:01～05:00,0.0303,0.0250,0.0283,
調布 (Chofu),2023-09-06,03:01～04:00,0.0310,0.0262,0.0283,
調布 (Chofu),2023-09-06,02:01～03:00,0.0305,0.0256,0.0282,
調布 (Chofu),2023-09-06,01:01～02:00,0.0309,0.0263,0.0281,
調布 (Chofu),2023-09-06,00:01～01:00,0.0301,0.0251,0.0281,
調布 (Chofu),2023-09-05,23:01～24:00,0.0304,0.0264,0.0280,
調布 (Chofu),2023-09-05,22:01～23:00,0.0302,0.0260,0.0280,
調布 (Chofu),2023-09-05,21:01～22:00,0.0311,0.0254,0.0282,
調布 (Chofu),2023-09-05,20:01～21:00,0.0303,0.0250,0.0277,
調布 (Chofu),2023-09-05,19:01～20:00,0.0290,0.0252,0.0276,
調布 (Chofu),2023-09-05,18:01～19:00,0.0296,0.0259,0.0277,
調布 (Chofu),2023-09-05,17:01～18:00,0.0304,0.0257,0.0275,
調布 (Chofu),2023-09-05,16:01～17:00,0.0300,0.0254,0.0278,
調布 (Chofu),2023-09-05,15:01～16:00,0.0306,0.0262,0.0279,
調布 (Chofu),2023-09-05,14:01～15:00,0.0293,0.0257,0.0277,
調布 (Chofu),2023-09-05,13:01～14:00,0.0295,0.0256,0.0277,
調布 (Chofu),2023-09-05,12:01～13:00,0.0294,0.0256,0.0276,
調布 (Chofu),2023-09-05,11:01～12:00,0.0296,0.0252,0.0272,
調布 (Chofu),2023-09-05,10:01～11:00,0.0296,0.0252,0.0272,
調布 (Chofu),2023-09-05,09:01～10:00,0.0296,0.0254,0.0273,
調布 (Chofu),2023-09-05,08:01～09:00,0.0295,0.0245,0.0275,
調布 (Chofu),2023-09-05,07:01～08:00,0.0306,0.0254,0.0277,
調布 (Chofu),2023-09-05,06:01～07:00,0.0290,0.0249,0.0273,
調布 (Chofu),2023-09-05,05:01～06:00,0.0298,0.0257,0.0276,
調布 (Chofu),2023-09-05,04:01～05:00,0.0295,0.0251,0.0271,
調布 (Chofu),2023-09-05,03:01～04:00,0.0290,0.0252,0.0272,
調布 (Chofu),2023-09-05,02:01～03:00,0.0292,0.0256,0.0271,
調布 (Chofu),2023-09-05,01:01～02:00,0.0297,0.0235,0.0273,
調布 (Chofu),2023-09-05,00:01～01:00,0.0295,0.0248,0.0273,
調布 (Chofu),2023-09-04,23:01～24:00,0.0293,0.0257,0.0275,
調布 (Chofu),2023-09-04,22:01～23:00,0.0301,0.0253,0.0278,
調布 (Chofu),2023-09-04,21:01～22:00,0.0296,0.0256,0.0273,
調布 (Chofu),2023-09-04,20:01～21:00,0.0295,0.0254,0.0271,
調布 (Chofu),2023-09-04,19:01～20:00,0.0297,0.0245,0.0274,
調布 (Chofu),2023-09-04,18:01～19:00,0.0295,0.0256,0.0275,
調布 (Chofu),2023-09-04,17:01～18:00,0.0298,0.0258,0.0276,
調布 (Chofu),2023-09-04,16:01～17:00,0.0297,0.0249,0.0277,
調布 (Chofu),2023-09-04,15:01～16:00,0.0300,0.0247,0.0275,
調布 (Chofu),2023-09-04,14:01～15:00,0.0292,0.0257,0.0275,
調布 (Chofu),2023-09-04,13:01～14:00,0.0300,0.0251,0.0273,
調布 (Chofu),2023-09-04,12:01～13:00,0.0296,0.0256,0.0275,
調布 (Chofu),2023-09-04,11:01～12:00,0.0299,0.0259,0.0280,
調布 (Chofu),2023-09-04,10:01～11:00,0.0313,0.0269,0.0289,
調布 (Chofu),2023-09-04,09:01～10:00,0.0320,0.0271,0.0299,
調布 (Chofu),2023-09-04,08:01～09:00,0.0325,0.0283,0.0308,
調布 (Chofu),2023-09-04,07:01～08:00,0.0330,0.0282,0.0305,
調布 (Chofu),2023-09-04,06:01～07:00,0.0336,0.0298,0.0315,
調布 (Chofu),2023-09-04,05:01～06:00,0.0330,0.0287,0.0305,
調布 (Chofu),2023-09-04,04:01～05:00,0.0314,0.0270,0.0291,
調布 (Chofu),2023-09-04,03:01～04:00,0.0309,0.0264,0.0287,
調布 (Chofu),2023-09-04,02:01～03:00,0.0315,0.0262,0.0294,
調布 (Chofu),2023-09-04,01:01～02:00,0.0326,0.0273,0.0294,
調布 (Chofu),2023-09-04,00:01～01:00,0.0315,0.0259,0.0289,
